This is the latest recevied weather packets stored in our database for station/object IZ1UQG-1. If no packets are shown the sender has not sent any weather packets the latest 10 day(s).
| Time | Temp. | Humidity | Pressure | Rain* | Wind** | Luminosity | Snow |
|---|---|---|---|---|---|---|---|
| 1777250053 | 18.33° C | 52% | 1017.6 hPa | 74.17 mm | - | - | - |
| 1777249753 | 18.33° C | 52% | 1017.7 hPa | 35.56 mm | - | - | - |
| 1777249453 | 18.33° C | 52% | 1017.8 hPa | 39.62 mm | - | - | - |
| 1777249153 | 18.33° C | 51% | 1017.6 hPa | 8.38 mm | - | - | - |
| 1777248853 | 18.33° C | 51% | 1017.8 hPa | 59.69 mm | - | - | - |
| 1777248553 | 18.33° C | 51% | 1017.7 hPa | 40.64 mm | - | - | - |
| 1777248253 | 18.33° C | 51% | 1017.8 hPa | 38.1 mm | - | - | - |
| 1777247953 | 18.89° C | 51% | 1017.8 hPa | 17.78 mm | - | - | - |
| 1777247653 | 18.89° C | 51% | 1017.8 hPa | 61.21 mm | - | - | - |
| 1777247353 | 18.89° C | 50% | 1017.7 hPa | 48.26 mm | - | - | - |
| 1777247053 | 18.89° C | 50% | 1017.6 hPa | 46.74 mm | - | - | - |
| 1777246753 | 18.89° C | 50% | 1017.8 hPa | 38.1 mm | - | - | - |
| 1777246454 | 18.89° C | 50% | 1017.8 hPa | 74.17 mm | - | - | - |
| 1777246153 | 18.89° C | 50% | 1017.7 hPa | 54.61 mm | - | - | - |
| 1777245853 | 18.89° C | 50% | 1017.6 hPa | 36.58 mm | - | - | - |
| 1777245553 | 18.89° C | 50% | 1017.8 hPa | 14.73 mm | - | - | - |
| 1777245253 | 18.89° C | 49% | 1017.6 hPa | 58.67 mm | - | - | - |
| 1777244953 | 18.89° C | 49% | 1017.5 hPa | 32.26 mm | - | - | - |
| 1777244653 | 19.44° C | 49% | 1017.5 hPa | 14.22 mm | - | - | - |
| 1777244353 | 19.44° C | 49% | 1017.3 hPa | 238.25 mm | - | - | - |
| 1777244053 | 19.44° C | 49% | 1017.5 hPa | 54.61 mm | - | - | - |
| 1777243753 | 19.44° C | 49% | 1017.4 hPa | 43.69 mm | - | - | - |
| 1777243453 | 19.44° C | 48% | 1017.2 hPa | 8.89 mm | - | - | - |
| 1777243153 | 19.44° C | 48% | 1017.4 hPa | 10.67 mm | - | - | - |
| 1777242853 | 19.44° C | 48% | 1017.2 hPa | 53.09 mm | - | - | - |
* Rain latest hour (hover to see other rain measurements)
** Current wind speed in m/s (hover to see current wind gust speed)